Cedar City, UT

8:33 PM MDT on April 28, 2017 (GMT -0600)
Cedar City Regional

Weather History for KCDC - July, 2013

Change the Weather History Date:

Wednesday, July 10, 2013

  Actual Average Record
Temperature  
Mean Temperature 76 °F 73 °F  
Max Temperature 98 °F 90 °F 103 °F (1976)
Min Temperature 54 °F 56 °F 44 °F (1983)
Degree Days  
Heating Degree Days 0 0  
Month to date heating degree days 0 0  
Since 1 June heating degree days 11 76  
Since 1 July heating degree days 0 0  
Cooling Degree Days 11 8  
Month to date cooling degree days 117 71  
Year to date cooling degree days 270 172  
Since 1 June cooling degree days 268 164  
Growing Degree Days 26 (Base 50)    
Moisture  
Dew Point 31 °F    
Average Humidity 28    
Maximum Humidity 47    
Minimum Humidity 8    
Precipitation  
Precipitation 0.00 in 0.02 in 0.48 in (1975)
Month to date precipitation 0.59 0.17  
Year to date precipitation 4.66 5.74  
Sea Level Pressure  
Sea Level Pressure 29.89 in    
Wind  
Wind Speed 4 mph (SW)    
Max Wind Speed 17 mph    
Max Gust Speed 23 mph    
Visibility 10 miles    
Events      
T = Trace of Precipitation, MM = Missing Value Source: NWS Daily Summary

Daily Weather History Graph

Daily Weather History Graph

Search for Another Location

Airport or City:

Trip Planner

Search our weather history database for the weather conditions in past years. The results will help you decide how hot, cold, wet, or windy it might be!

Date:

Astronomy

Jul. 10, 2013 Rise Set
Actual Time 6:19 AM MDT 8:55 PM MDT
Civil Twilight 5:48 AM MDT 9:26 PM MDT
Nautical Twilight 5:10 AM MDT 10:04 PM MDT
Astronomical Twilight 4:27 AM MDT 10:47 PM MDT
Moon 8:40 AM MDT (7/10) 10:11 PM MDT (7/10)
Length of Visible Light 15h 37m
Length of Day
14h 36m
Waxing Crescent, 5% of the Moon is Illuminated
Jul 10
Waxing Crescent
Jul 15
First Quarter
Jul 22
Full
Jul 29
Last Quarter
Aug 6
New

Hourly Weather History & Observations

Time (MDT) Temp. Dew Point Humidity Pressure Visibility Wind Dir Wind Speed Gust Speed Precip Events Conditions
12:53 AM 71.1 °F 28.0 °F 20% 29.93 in 10.0 mi SSE 6.9 mph - N/A   Clear
1:53 AM 70.0 °F 28.0 °F 21% 29.92 in 10.0 mi ENE 3.5 mph - N/A   Clear
2:53 AM 60.1 °F 30.9 °F 33% 29.94 in 10.0 mi Calm Calm - N/A   Clear
3:53 AM 61.0 °F 30.9 °F 32% 29.93 in 10.0 mi Calm Calm - N/A   Clear
4:53 AM 55.9 °F 36.0 °F 47% 29.96 in 10.0 mi West 3.5 mph - N/A   Scattered Clouds
5:53 AM 55.0 °F 33.1 °F 43% 29.97 in 10.0 mi Calm Calm - N/A   Clear
6:53 AM 59.0 °F 30.9 °F 35% 29.96 in 10.0 mi Calm Calm - N/A   Clear
7:53 AM 66.0 °F 32.0 °F 28% 29.95 in 10.0 mi Calm Calm - N/A   Clear
8:53 AM 71.1 °F 46.0 °F 41% 29.97 in 10.0 mi WNW 3.5 mph - N/A   Clear
9:53 AM 79.0 °F 35.1 °F 20% 29.97 in 10.0 mi NNE 3.5 mph - N/A   Clear
10:53 AM 86.0 °F 24.1 °F 10% 29.94 in 10.0 mi West 3.5 mph - N/A   Clear
11:53 AM 89.1 °F 21.9 °F 9% 29.92 in 10.0 mi Calm Calm - N/A   Clear
12:53 PM 91.9 °F 23.0 °F 8% 29.90 in 10.0 mi Variable 6.9 mph - N/A   Clear
1:53 PM 93.9 °F 27.0 °F 9% 29.87 in 10.0 mi WNW 6.9 mph - N/A   Clear
2:53 PM 96.1 °F 24.1 °F 8% 29.86 in 10.0 mi West 6.9 mph - N/A   Clear
3:53 PM 96.1 °F 25.0 °F 8% 29.85 in 10.0 mi Variable 4.6 mph - N/A   Clear
4:53 PM 97.0 °F 25.0 °F 8% 29.83 in 10.0 mi SW 12.7 mph 21.9 mph N/A   Clear
5:53 PM 93.9 °F 28.0 °F 10% 29.83 in 10.0 mi SSW 15.0 mph 21.9 mph N/A   Clear
6:53 PM 91.9 °F 30.9 °F 11% 29.81 in 10.0 mi SSW 13.8 mph 23.0 mph N/A   Clear
7:53 PM 89.1 °F 35.1 °F 15% 29.81 in 10.0 mi WSW 11.5 mph - N/A   Clear
8:53 PM 86.0 °F 34.0 °F 16% 29.83 in 10.0 mi SSW 15.0 mph 24.2 mph N/A   Clear
9:53 PM 84.9 °F 34.0 °F 16% 29.83 in 10.0 mi South 10.4 mph - N/A   Clear
10:53 PM 84.0 °F 36.0 °F 18% 29.83 in 10.0 mi Variable 3.5 mph - N/A   Mostly Cloudy
11:53 PM 82.0 °F 37.0 °F 20% 29.81 in 10.0 mi SE 6.9 mph - N/A   Clear